Location: Poughquag
(41.6090°N, 73.6820°W)
Time: 10:01:34
(UTC-05:00)

SR - Pass Details

Date: 08 December 2023
Orbit: 574 x 868 km, 66.7° (Epoch: 25 February)

Event Time Altitude Azimuth Distance (km) Brightness Sun altitude
Rises 19:27:28 0° 328° (NNW) 3,443 ? -33.4°
Reaches altitude 10° 19:30:00 10° 328° (NNW) 2,484 ? -33.9°
Enters shadow 19:32:34 27° 325° (NW) 1,555 ? -34.3°
Maximum altitude 19:35:46 80° 242° (WSW) 835 - -34.9°
Drops below altitude 10° 19:41:07 10° 156° (SSE) 2,314 - -35.9°
Sets 19:43:25 0° 156° (SSE) 3,192 - -36.4°
